| time (UTC) | temp C | wind direction | speed KPH | gust KPH | rain 1hr cm | rain 24hr cm | rain mn cm | humidity % | barometer mb |
| 20260506135749 | 25 | 96 | 3.2 | 3.2 | 0.00 | 0.00 | 0.00 | 67 | 1016.6 |
| 20260506135245 | 25 | 344 | 1.6 | 1.6 | 0.00 | 0.00 | 0.00 | 67 | 1016.6 |
| 20260506134742 | 24 | 193 | 6.4 | 6.4 | 0.00 | 0.00 | 0.00 | 67 | 1016.6 |
| 20260506134239 | 24 | 227 | 6.4 | 8.0 | 0.00 | 0.00 | 0.00 | 69 | 1016.2 |
| 20260506133736 | 24 | 210 | 3.2 | 3.2 | 0.00 | 0.00 | 0.00 | 70 | 1016.2 |
| 20260506133232 | 23 | 252 | 3.2 | 3.2 | 0.00 | 0.00 | 0.00 | 73 | 1016.2 |
| 20260506132729 | 23 | 102 | 0.0 | 0.0 | 0.00 | 0.00 | 0.00 | 73 | 1016.6 |
| 20260506132226 | 23 | 253 | 0.0 | 0.0 | 0.00 | 0.00 | 0.00 | 74 | 1016.6 |
| 20260506131725 | 23 | 92 | 3.2 | 3.2 | 0.00 | 0.00 | 0.00 | 74 | 1016.6 |
| 20260506131220 | 23 | 0 | 3.2 | 3.2 | 0.00 | 0.00 | 0.00 | 76 | 1016.6 |
| 20260506130717 | 22 | 18 | 3.2 | 3.2 | 0.00 | 0.00 | 0.00 | 78 | 1016.6 |
| 20260506130214 | 22 | 197 | 0.0 | 0.0 | 0.00 | 0.00 | 0.00 | 78 | 1016.6 |
| 20260506125712 | 22 | 53 | 3.2 | 3.2 | 0.00 | 0.00 | 0.00 | 78 | 1016.2 |
| 20260506125210 | 22 | 114 | 0.0 | 0.0 | 0.00 | 0.00 | 0.00 | 80 | 1016.2 |
| 20260506124708 | 22 | 300 | 3.2 | 3.2 | 0.00 | 0.00 | 0.00 | 81 | 1016.2 |
| 20260506124206 | 21 | 294 | 0.0 | 0.0 | 0.00 | 0.00 | 0.00 | 83 | 1016.2 |
| 20260506123702 | 21 | 277 | 4.8 | 4.8 | 0.00 | 0.00 | 0.00 | 84 | 1016.2 |
| 20260506123202 | 21 | 256 | 0.0 | 0.0 | 0.00 | 0.00 | 0.00 | 86 | 1016.2 |
| 20260506122658 | 21 | 138 | 3.2 | 3.2 | 0.00 | 0.00 | 0.00 | 86 | 1016.2 |
| 20260506122155 | 20 | 264 | 0.0 | 0.0 | 0.00 | 0.00 | 0.00 | 88 | 1016.2 |
| 20260506121653 | 20 | 190 | 4.8 | 4.8 | 0.00 | 0.00 | 0.00 | 89 | 1016.2 |
| 20260506121149 | 19 | 181 | 1.6 | 1.6 | 0.00 | 0.00 | 0.00 | 92 | 1016.2 |
| 20260506120647 | 18 | 186 | 4.8 | 4.8 | 0.00 | 0.00 | 0.00 | 95 | 1016.2 |
| 20260506120144 | 18 | 126 | 0.0 | 0.0 | 0.00 | 0.00 | 0.00 | 97 | 1016.2 |
| 20260506115643 | 18 | 186 | 0.0 | 0.0 | 0.00 | 0.00 | 0.00 | 98 | 1015.9 |
| 20260506115140 | 17 | 186 | 0.0 | 0.0 | 0.00 | 0.00 | 0.00 | 99 | 1015.9 |
| 20260506114637 | 17 | 222 | 0.0 | 0.0 | 0.00 | 0.00 | 0.00 | 99 | 1015.9 |
| 20260506114135 | 16 | 195 | 0.0 | 0.0 | 0.00 | 0.00 | 0.00 | 99 | 1015.9 |
| 20260506113634 | 16 | 196 | 0.0 | 0.0 | 0.00 | 0.00 | 0.00 | 99 | 1015.9 |
| 20260506113130 | 16 | 195 | 0.0 | 0.0 | 0.00 | 0.00 | 0.00 | 99 | 1015.9 |
| 20260506112626 | 16 | 207 | 0.0 | 0.0 | 0.00 | 0.00 | 0.00 | 99 | 1015.9 |
| 20260506112124 | 16 | 239 | 0.0 | 0.0 | 0.00 | 0.00 | 0.00 | 99 | 1015.9 |
| 20260506111622 | 16 | 231 | 0.0 | 0.0 | 0.00 | 0.00 | 0.00 | 99 | 1015.9 |
| 20260506111119 | 15 | 231 | 0.0 | 0.0 | 0.00 | 0.00 | 0.00 | 99 | 1015.9 |
| 20260506110616 | 15 | 231 | 0.0 | 0.0 | 0.00 | 0.00 | 0.00 | 99 | 1015.9 |
| 20260506110114 | 15 | 231 | 0.0 | 0.0 | 0.00 | 0.00 | 0.00 | 99 | 1015.9 |
| 20260506105610 | 15 | 231 | 0.0 | 0.0 | 0.00 | 0.00 | 0.00 | 99 | 1015.9 |
| 20260506105107 | 15 | 230 | 0.0 | 0.0 | 0.00 | 0.00 | 0.00 | 99 | 1015.9 |
| 20260506104606 | 15 | 231 | 0.0 | 0.0 | 0.00 | 0.00 | 0.00 | 99 | 1015.9 |
| 20260506104102 | 15 | 231 | 0.0 | 0.0 | 0.00 | 0.00 | 0.00 | 99 | 1015.9 |
| 20260506103600 | 15 | 231 | 0.0 | 0.0 | 0.00 | 0.00 | 0.00 | 99 | 1015.9 |
| 20260506103056 | 15 | 231 | 0.0 | 0.0 | 0.00 | 0.00 | 0.00 | 99 | 1015.9 |
| 20260506102555 | 15 | 231 | 0.0 | 0.0 | 0.00 | 0.00 | 0.00 | 99 | 1015.6 |
| 20260506102052 | 15 | 231 | 0.0 | 0.0 | 0.00 | 0.00 | 0.00 | 99 | 1015.6 |
| 20260506101548 | 15 | 231 | 0.0 | 0.0 | 0.00 | 0.00 | 0.00 | 99 | 1015.6 |
| 20260506101045 | 15 | 231 | 0.0 | 0.0 | 0.00 | 0.00 | 0.00 | 99 | 1015.9 |
| 20260506100544 | 15 | 231 | 0.0 | 0.0 | 0.00 | 0.00 | 0.00 | 99 | 1015.9 |
| 20260506100041 | 15 | 231 | 0.0 | 0.0 | 0.00 | 0.00 | 0.00 | 99 | 1015.9 |
| 20260506095540 | 15 | 231 | 0.0 | 0.0 | 0.00 | 0.00 | 0.00 | 99 | 1015.6 |
| 20260506095036 | 15 | 228 | 0.0 | 0.0 | 0.00 | 0.00 | 0.00 | 98 | 1015.6 |
| 20260506094534 | 15 | 228 | 0.0 | 0.0 | 0.00 | 0.00 | 0.00 | 98 | 1015.6 |
| 20260506094032 | 15 | 228 | 0.0 | 0.0 | 0.00 | 0.00 | 0.00 | 98 | 1015.6 |
| 20260506093530 | 15 | 228 | 0.0 | 0.0 | 0.00 | 0.00 | 0.00 | 98 | 1015.6 |
| 20260506093027 | 15 | 228 | 0.0 | 0.0 | 0.00 | 0.00 | 0.00 | 98 | 1015.6 |
| 20260506092525 | 15 | 240 | 0.0 | 0.0 | 0.00 | 0.00 | 0.00 | 98 | 1015.6 |
| 20260506092021 | 15 | 240 | 0.0 | 0.0 | 0.00 | 0.00 | 0.00 | 98 | 1015.6 |
| 20260506091520 | 15 | 242 | 0.0 | 0.0 | 0.00 | 0.00 | 0.00 | 98 | 1015.6 |
| 20260506091016 | 15 | 240 | 0.0 | 0.0 | 0.00 | 0.00 | 0.00 | 98 | 1015.9 |
| 20260506090514 | 15 | 240 | 0.0 | 0.0 | 0.00 | 0.00 | 0.00 | 97 | 1015.9 |
| 20260506090010 | 15 | 240 | 0.0 | 0.0 | 0.00 | 0.00 | 0.00 | 98 | 1015.9 |
| 20260506085507 | 15 | 240 | 0.0 | 0.0 | 0.00 | 0.00 | 0.00 | 97 | 1015.9 |
| 20260506085004 | 15 | 240 | 0.0 | 0.0 | 0.00 | 0.00 | 0.00 | 97 | 1015.9 |
| 20260506084501 | 15 | 240 | 0.0 | 0.0 | 0.00 | 0.00 | 0.00 | 97 | 1015.9 |
| 20260506083956 | 15 | 240 | 0.0 | 0.0 | 0.00 | 0.00 | 0.00 | 97 | 1015.9 |
| 20260506083454 | 15 | 240 | 0.0 | 0.0 | 0.00 | 0.00 | 0.00 | 98 | 1015.9 |
| 20260506082951 | 15 | 240 | 0.0 | 0.0 | 0.00 | 0.00 | 0.00 | 98 | 1015.9 |
| 20260506082448 | 15 | 240 | 0.0 | 0.0 | 0.00 | 0.00 | 0.00 | 98 | 1015.9 |
| 20260506081944 | 15 | 240 | 0.0 | 0.0 | 0.00 | 0.00 | 0.00 | 98 | 1015.9 |
| 20260506081442 | 15 | 240 | 0.0 | 0.0 | 0.00 | 0.00 | 0.00 | 98 | 1015.9 |
| 20260506080939 | 15 | 240 | 0.0 | 0.0 | 0.00 | 0.00 | 0.00 | 98 | 1015.9 |
| 20260506080436 | 15 | 228 | 0.0 | 0.0 | 0.00 | 0.00 | 0.00 | 98 | 1015.9 |
| 20260506073420 | 15 | 228 | 0.0 | 0.0 | 0.00 | 0.00 | 0.00 | 97 | 1015.6 |
| 20260506072918 | 15 | 228 | 0.0 | 0.0 | 0.00 | 0.00 | 0.00 | 97 | 1015.6 |
| 20260506072414 | 15 | 228 | 0.0 | 0.0 | 0.00 | 0.00 | 0.00 | 97 | 1015.6 |
| 20260506071912 | 15 | 228 | 0.0 | 0.0 | 0.00 | 0.00 | 0.00 | 97 | 1015.6 |
| 20260506071410 | 15 | 228 | 0.0 | 0.0 | 0.00 | 0.00 | 0.00 | 96 | 1015.6 |
| 20260506070907 | 15 | 228 | 0.0 | 0.0 | 0.00 | 0.00 | 0.00 | 97 | 1015.6 |
| 20260506070403 | 15 | 228 | 0.0 | 0.0 | 0.00 | 0.00 | 0.00 | 96 | 1015.6 |
| 20260506062341 | 15 | 232 | 0.0 | 0.0 | 0.00 | 0.00 | 0.00 | 95 | 1015.9 |
| 20260506061837 | 15 | 232 | 0.0 | 0.0 | 0.00 | 0.00 | 0.00 | 95 | 1015.9 |
| 20260506061333 | 15 | 228 | 0.0 | 0.0 | 0.00 | 0.00 | 0.00 | 95 | 1015.9 |
| 20260506060832 | 15 | 228 | 0.0 | 0.0 | 0.00 | 0.00 | 0.00 | 95 | 1015.9 |
| 20260506060329 | 15 | 228 | 0.0 | 0.0 | 0.00 | 0.00 | 0.00 | 95 | 1015.9 |
| 20260506051301 | 15 | 222 | 0.0 | 0.0 | 0.00 | 0.00 | 0.00 | 93 | 1016.6 |
| 20260506050759 | 15 | 222 | 0.0 | 0.0 | 0.00 | 0.00 | 0.00 | 93 | 1016.6 |
| 20260506050256 | 15 | 222 | 0.0 | 0.0 | 0.00 | 0.00 | 0.00 | 93 | 1016.6 |
| 20260506044747 | 16 | 222 | 0.0 | 0.0 | 0.00 | 0.00 | 0.00 | 92 | 1016.6 |
| 20260506044244 | 16 | 222 | 0.0 | 0.0 | 0.00 | 0.00 | 0.00 | 92 | 1016.9 |
| 20260506043741 | 16 | 222 | 0.0 | 0.0 | 0.00 | 0.00 | 0.00 | 91 | 1016.9 |
| 20260506043239 | 16 | 222 | 0.0 | 0.0 | 0.00 | 0.00 | 0.00 | 91 | 1016.9 |
| 20260506042737 | 16 | 222 | 0.0 | 0.0 | 0.00 | 0.00 | 0.00 | 91 | 1016.9 |
| 20260506042236 | 16 | 240 | 0.0 | 0.0 | 0.00 | 0.00 | 0.00 | 90 | 1016.9 |
| 20260506041734 | 16 | 240 | 0.0 | 0.0 | 0.00 | 0.00 | 0.00 | 90 | 1016.9 |
| 20260506041230 | 16 | 240 | 0.0 | 0.0 | 0.00 | 0.00 | 0.00 | 90 | 1016.6 |
| 20260506040728 | 16 | 244 | 0.0 | 0.0 | 0.00 | 0.00 | 0.00 | 89 | 1016.6 |
| 20260506040225 | 16 | 246 | 0.0 | 0.0 | 0.00 | 0.00 | 0.00 | 89 | 1016.6 |
| 20260506035721 | 16 | 246 | 0.0 | 0.0 | 0.00 | 0.00 | 0.00 | 88 | 1016.6 |
| 20260506035219 | 16 | 246 | 0.0 | 0.0 | 0.00 | 0.00 | 0.00 | 88 | 1016.6 |
| 20260506034715 | 16 | 246 | 0.0 | 0.0 | 0.00 | 0.00 | 0.00 | 88 | 1016.6 |
| 20260506034212 | 16 | 246 | 0.0 | 0.0 | 0.00 | 0.00 | 0.00 | 88 | 1016.6 |
| 20260506033710 | 16 | 240 | 0.0 | 0.0 | 0.00 | 0.00 | 0.00 | 88 | 1016.6 |
| 20260506033206 | 16 | 240 | 0.0 | 0.0 | 0.00 | 0.00 | 0.00 | 88 | 1016.6 |
| 20260506032703 | 16 | 242 | 0.0 | 0.0 | 0.00 | 0.00 | 0.00 | 87 | 1016.6 |
| 20260506032201 | 16 | 240 | 0.0 | 0.0 | 0.00 | 0.00 | 0.00 | 87 | 1016.6 |
| 20260506031657 | 16 | 252 | 0.0 | 0.0 | 0.00 | 0.00 | 0.00 | 86 | 1016.6 |
| 20260506031154 | 16 | 252 | 0.0 | 0.0 | 0.00 | 0.00 | 0.00 | 86 | 1016.6 |
| 20260506030653 | 17 | 252 | 0.0 | 0.0 | 0.00 | 0.00 | 0.00 | 86 | 1016.6 |
| 20260506030150 | 17 | 252 | 0.0 | 0.0 | 0.00 | 0.00 | 0.00 | 86 | 1016.6 |
| 20260506025646 | 17 | 234 | 0.0 | 0.0 | 0.00 | 0.00 | 0.00 | 86 | 1016.6 |
| 20260506025142 | 17 | 232 | 0.0 | 0.0 | 0.00 | 0.00 | 0.00 | 85 | 1016.6 |
| 20260506024640 | 17 | 240 | 0.0 | 0.0 | 0.00 | 0.00 | 0.00 | 85 | 1016.6 |
| 20260506024136 | 17 | 240 | 0.0 | 0.0 | 0.00 | 0.00 | 0.00 | 85 | 1016.9 |
| 20260506023633 | 17 | 240 | 0.0 | 0.0 | 0.00 | 0.00 | 0.00 | 85 | 1016.9 |
| 20260506023130 | 17 | 240 | 0.0 | 0.0 | 0.00 | 0.00 | 0.00 | 84 | 1016.9 |
| 20260506022627 | 17 | 240 | 0.0 | 0.0 | 0.00 | 0.00 | 0.00 | 84 | 1016.9 |
| 20260506022125 | 17 | 240 | 0.0 | 0.0 | 0.00 | 0.00 | 0.00 | 84 | 1016.9 |
| 20260506021622 | 17 | 240 | 0.0 | 0.0 | 0.00 | 0.00 | 0.00 | 84 | 1016.9 |
| 20260506021119 | 17 | 240 | 0.0 | 0.0 | 0.00 | 0.00 | 0.00 | 82 | 1016.9 |
| 20260506020616 | 17 | 240 | 0.0 | 0.0 | 0.00 | 0.00 | 0.00 | 82 | 1016.9 |
| 20260506020114 | 18 | 240 | 0.0 | 0.0 | 0.00 | 0.00 | 0.00 | 82 | 1016.9 |
| 20260506015611 | 18 | 240 | 0.0 | 0.0 | 0.00 | 0.00 | 0.00 | 81 | 1016.9 |
| 20260506015108 | 18 | 264 | 0.0 | 0.0 | 0.00 | 0.00 | 0.00 | 81 | 1016.9 |
| 20260506014606 | 18 | 276 | 0.0 | 0.0 | 0.00 | 0.00 | 0.00 | 81 | 1016.9 |
| 20260506014101 | 18 | 262 | 0.0 | 0.0 | 0.00 | 0.00 | 0.00 | 80 | 1016.2 |
| 20260506013559 | 18 | 138 | 0.0 | 0.0 | 0.00 | 0.00 | 0.00 | 81 | 1016.2 |
| 20260506013056 | 18 | 192 | 0.0 | 0.0 | 0.00 | 0.00 | 0.00 | 81 | 1016.2 |
| 20260506012552 | 18 | 216 | 0.0 | 0.0 | 0.00 | 0.00 | 0.00 | 80 | 1016.6 |
| 20260506012048 | 18 | 255 | 0.0 | 0.0 | 0.00 | 0.00 | 0.00 | 80 | 1016.6 |
| 20260506011547 | 18 | 258 | 0.0 | 0.0 | 0.00 | 0.00 | 0.00 | 79 | 1016.6 |
| 20260506011042 | 19 | 191 | 0.0 | 0.0 | 0.00 | 0.00 | 0.00 | 78 | 1016.6 |
| 20260506010536 | 19 | 191 | 0.0 | 0.0 | 0.00 | 0.00 | 0.00 | 77 | 1016.6 |
| 20260506010032 | 19 | 191 | 0.0 | 0.0 | 0.00 | 0.00 | 0.00 | 76 | 1016.6 |
| 20260506005529 | 19 | 191 | 0.0 | 0.0 | 0.00 | 0.00 | 0.00 | 76 | 1016.2 |
| 20260506005025 | 20 | 186 | 0.0 | 0.0 | 0.00 | 0.00 | 0.00 | 76 | 1016.2 |
| 20260506004523 | 20 | 132 | 0.0 | 0.0 | 0.00 | 0.00 | 0.00 | 75 | 1016.2 |
| 20260506004019 | 20 | 174 | 0.0 | 0.0 | 0.00 | 0.00 | 0.00 | 74 | 1016.6 |
| 20260506003516 | 20 | 150 | 0.0 | 0.0 | 0.00 | 0.00 | 0.00 | 73 | 1016.6 |
| 20260506003012 | 20 | 144 | 0.0 | 0.0 | 0.00 | 0.00 | 0.00 | 72 | 1016.6 |
| 20260506002508 | 20 | 174 | 0.0 | 0.0 | 0.00 | 0.00 | 0.00 | 71 | 1016.6 |
| 20260506002004 | 20 | 170 | 0.0 | 0.0 | 0.00 | 0.00 | 0.00 | 70 | 1016.6 |
| 20260506001501 | 21 | 113 | 1.6 | 1.6 | 0.00 | 0.00 | 0.00 | 69 | 1016.6 |
| 20260506000958 | 21 | 225 | 0.0 | 0.0 | 0.00 | 0.00 | 0.00 | 68 | 1016.6 |
| 20260506000455 | 21 | 186 | 0.0 | 0.0 | 0.00 | 0.00 | 0.00 | 67 | 1016.6 |
| 20260505235952 | 21 | 168 | 0.0 | 0.0 | 0.00 | 0.00 | 0.00 | 66 | 1016.6 |
| 20260505235450 | 21 | 84 | 0.0 | 0.0 | 0.00 | 0.00 | 0.00 | 65 | 1016.6 |
| 20260505234946 | 21 | 126 | 0.0 | 0.0 | 0.00 | 0.00 | 0.00 | 64 | 1016.6 |
| 20260505234444 | 21 | 42 | 0.0 | 0.0 | 0.00 | 0.00 | 0.00 | 64 | 1016.2 |
| 20260505233940 | 21 | 108 | 0.0 | 0.0 | 0.00 | 0.00 | 0.00 | 62 | 1016.2 |
| 20260505233438 | 22 | 108 | 3.2 | 3.2 | 0.00 | 0.00 | 0.00 | 61 | 1016.2 |
| 20260505232936 | 22 | 140 | 0.0 | 0.0 | 0.00 | 0.00 | 0.00 | 61 | 1015.9 |
| 20260505232434 | 22 | 61 | 4.8 | 4.8 | 0.00 | 0.00 | 0.00 | 62 | 1015.9 |
| 20260505231930 | 22 | 260 | 0.0 | 0.0 | 0.00 | 0.00 | 0.00 | 62 | 1015.9 |
| 20260505231428 | 22 | 102 | 0.0 | 0.0 | 0.00 | 0.00 | 0.00 | 63 | 1016.2 |
| 20260505230926 | 22 | 120 | 4.8 | 4.8 | 0.00 | 0.00 | 0.00 | 62 | 1016.2 |
| 20260505230423 | 22 | 108 | 3.2 | 3.2 | 0.00 | 0.00 | 0.00 | 63 | 1016.2 |
| 20260505225919 | 22 | 156 | 0.0 | 0.0 | 0.00 | 0.00 | 0.00 | 62 | 1016.2 |
| 20260505225417 | 22 | 72 | 3.2 | 3.2 | 0.00 | 0.00 | 0.00 | 61 | 1016.2 |
| 20260505224912 | 22 | 174 | 3.2 | 3.2 | 0.00 | 0.00 | 0.00 | 61 | 1016.2 |
| 20260505224410 | 22 | 174 | 6.4 | 6.4 | 0.00 | 0.00 | 0.00 | 61 | 1016.6 |
| 20260505223907 | 23 | 270 | 3.2 | 3.2 | 0.00 | 0.00 | 0.00 | 61 | 1016.6 |
| 20260505223404 | 22 | 102 | 3.2 | 3.2 | 0.00 | 0.00 | 0.00 | 60 | 1016.6 |
| 20260505222900 | 23 | 124 | 3.2 | 3.2 | 0.00 | 0.00 | 0.00 | 60 | 1016.6 |
| 20260505222356 | 23 | 62 | 0.0 | 0.0 | 0.00 | 0.00 | 0.00 | 60 | 1016.6 |
| 20260505221853 | 23 | 348 | 3.2 | 3.2 | 0.00 | 0.00 | 0.00 | 60 | 1016.6 |
| 20260505221350 | 23 | 126 | 4.8 | 4.8 | 0.00 | 0.00 | 0.00 | 60 | 1016.6 |
| 20260505220847 | 23 | 126 | 0.0 | 0.0 | 0.00 | 0.00 | 0.00 | 61 | 1016.6 |
| 20260505220344 | 23 | 102 | 4.8 | 4.8 | 0.00 | 0.00 | 0.00 | 62 | 1016.6 |
| 20260505215841 | 24 | 120 | 6.4 | 6.4 | 0.00 | 0.00 | 0.00 | 59 | 1016.6 |
| 20260505215339 | 25 | 239 | 3.2 | 3.2 | 0.00 | 0.00 | 0.00 | 58 | 1016.6 |
| 20260505214837 | 24 | 312 | 3.2 | 3.2 | 0.00 | 0.00 | 0.00 | 57 | 1016.6 |
| 20260505214335 | 25 | 128 | 8.0 | 8.0 | 0.00 | 0.00 | 0.00 | 58 | 1016.9 |
| 20260505213831 | 24 | 96 | 3.2 | 3.2 | 0.00 | 0.00 | 0.00 | 58 | 1016.9 |
| 20260505213329 | 24 | 106 | 6.4 | 6.4 | 0.00 | 0.00 | 0.00 | 59 | 1016.9 |
| 20260505212825 | 25 | 127 | 3.2 | 3.2 | 0.00 | 0.00 | 0.00 | 58 | 1016.6 |
| 20260505212322 | 25 | 101 | 3.2 | 3.2 | 0.00 | 0.00 | 0.00 | 58 | 1016.6 |
| 20260505211818 | 25 | 268 | 4.8 | 6.4 | 0.00 | 0.00 | 0.00 | 58 | 1016.6 |
| 20260505211316 | 25 | 68 | 0.0 | 0.0 | 0.00 | 0.00 | 0.00 | 58 | 1016.6 |
| 20260505210812 | 24 | 97 | 1.6 | 1.6 | 0.00 | 0.00 | 0.00 | 59 | 1016.6 |
| 20260505210309 | 23 | 72 | 3.2 | 3.2 | 0.00 | 0.00 | 0.00 | 60 | 1016.6 |
| 20260505205806 | 25 | 234 | 6.4 | 6.4 | 0.00 | 0.00 | 0.00 | 58 | 1016.6 |
| 20260505205305 | 24 | 60 | 3.2 | 3.2 | 0.00 | 0.00 | 0.00 | 60 | 1016.6 |
| 20260505204801 | 25 | 116 | 3.2 | 3.2 | 0.00 | 0.00 | 0.00 | 55 | 1016.6 |
| 20260505204259 | 26 | 247 | 4.8 | 4.8 | 0.00 | 0.00 | 0.00 | 52 | 1016.2 |
| 20260505203756 | 25 | 168 | 0.0 | 0.0 | 0.00 | 0.00 | 0.00 | 54 | 1016.2 |
| 20260505203253 | 26 | 114 | 6.4 | 8.0 | 0.00 | 0.00 | 0.00 | 55 | 1016.2 |
| 20260505202749 | 26 | 126 | 4.8 | 6.4 | 0.00 | 0.00 | 0.00 | 53 | 1016.6 |
| 20260505202245 | 26 | 78 | 4.8 | 4.8 | 0.00 | 0.00 | 0.00 | 51 | 1016.6 |
| 20260505201742 | 26 | 193 | 3.2 | 3.2 | 0.00 | 0.00 | 0.00 | 51 | 1016.6 |
| 20260505201239 | 26 | 246 | 4.8 | 4.8 | 0.00 | 0.00 | 0.00 | 49 | 1016.9 |
| 20260505200738 | 26 | 71 | 3.2 | 3.2 | 0.00 | 0.00 | 0.00 | 51 | 1016.9 |
| 20260505200235 | 26 | 93 | 3.2 | 3.2 | 0.00 | 0.00 | 0.00 | 51 | 1016.9 |
| 20260505195729 | 25 | 234 | 4.8 | 4.8 | 0.00 | 0.00 | 0.00 | 53 | 1016.9 |
| 20260505195227 | 26 | 216 | 6.4 | 6.4 | 0.00 | 0.00 | 0.00 | 51 | 1016.9 |
| 20260505194724 | 26 | 222 | 4.8 | 4.8 | 0.00 | 0.00 | 0.00 | 51 | 1016.9 |
| 20260505194221 | 26 | 339 | 4.8 | 4.8 | 0.00 | 0.00 | 0.00 | 50 | 1017.6 |
| 20260505193717 | 25 | 319 | 0.0 | 0.0 | 0.00 | 0.00 | 0.00 | 51 | 1017.6 |
| 20260505193214 | 25 | 216 | 4.8 | 4.8 | 0.00 | 0.00 | 0.00 | 52 | 1017.6 |
| 20260505192713 | 25 | 107 | 6.4 | 6.4 | 0.00 | 0.00 | 0.00 | 50 | 1017.6 |
| 20260505192210 | 24 | 90 | 4.8 | 4.8 | 0.00 | 0.00 | 0.00 | 53 | 1017.6 |
| 20260505191708 | 26 | 92 | 6.4 | 8.0 | 0.00 | 0.00 | 0.00 | 51 | 1017.6 |
| 20260505191206 | 25 | 124 | 3.2 | 3.2 | 0.00 | 0.00 | 0.00 | 51 | 1017.9 |
| 20260505190702 | 25 | 41 | 8.0 | 8.0 | 0.00 | 0.00 | 0.00 | 54 | 1017.9 |
| 20260505190201 | 25 | 0 | 3.2 | 3.2 | 0.00 | 0.00 | 0.00 | 50 | 1017.9 |
| 20260505185659 | 25 | 179 | 3.2 | 3.2 | 0.00 | 0.00 | 0.00 | 51 | 1017.9 |
| 20260505185155 | 25 | 49 | 4.8 | 4.8 | 0.00 | 0.00 | 0.00 | 53 | 1017.9 |
| 20260505184651 | 25 | 112 | 3.2 | 3.2 | 0.00 | 0.00 | 0.00 | 54 | 1017.9 |
| 20260505184149 | 25 | 118 | 8.0 | 9.7 | 0.00 | 0.00 | 0.00 | 51 | 1017.6 |
| 20260505183645 | 26 | 126 | 4.8 | 4.8 | 0.00 | 0.00 | 0.00 | 52 | 1017.6 |
| 20260505183143 | 26 | 54 | 0.0 | 0.0 | 0.00 | 0.00 | 0.00 | 53 | 1017.6 |
| 20260505182639 | 26 | 240 | 6.4 | 6.4 | 0.00 | 0.00 | 0.00 | 52 | 1017.6 |
| 20260505182136 | 26 | 110 | 3.2 | 3.2 | 0.00 | 0.00 | 0.00 | 54 | 1017.6 |
| 20260505181632 | 26 | 306 | 8.0 | 9.7 | 0.00 | 0.00 | 0.00 | 52 | 1017.6 |
| 20260505181130 | 26 | 122 | 3.2 | 3.2 | 0.00 | 0.00 | 0.00 | 53 | 1017.6 |
| 20260505180626 | 26 | 216 | 1.6 | 1.6 | 0.00 | 0.00 | 0.00 | 55 | 1017.6 |
| 20260505180124 | 25 | 138 | 6.4 | 6.4 | 0.00 | 0.00 | 0.00 | 55 | 1017.6 |
| 20260505175619 | 26 | 101 | 3.2 | 3.2 | 0.00 | 0.00 | 0.00 | 53 | 1017.6 |
| 20260505175116 | 25 | 144 | 3.2 | 3.2 | 0.00 | 0.00 | 0.00 | 55 | 1017.6 |
| 20260505174613 | 26 | 145 | 0.0 | 0.0 | 0.00 | 0.00 | 0.00 | 54 | 1017.6 |
| 20260505174108 | 25 | 108 | 3.2 | 3.2 | 0.00 | 0.00 | 0.00 | 56 | 1017.6 |
| 20260505173605 | 25 | 61 | 3.2 | 3.2 | 0.00 | 0.00 | 0.00 | 56 | 1017.6 |
| 20260505173102 | 25 | 42 | 4.8 | 4.8 | 0.00 | 0.00 | 0.00 | 55 | 1017.6 |
| 20260505172600 | 25 | 238 | 4.8 | 6.4 | 0.00 | 0.00 | 0.00 | 54 | 1017.9 |
| 20260505172057 | 25 | 5 | 3.2 | 3.2 | 0.00 | 0.00 | 0.00 | 55 | 1017.9 |
| 20260505171551 | 25 | 313 | 4.8 | 4.8 | 0.00 | 0.00 | 0.00 | 53 | 1017.9 |
| 20260505171048 | 25 | 267 | 8.0 | 8.0 | 0.00 | 0.00 | 0.00 | 53 | 1017.9 |
| 20260505170545 | 25 | 335 | 6.4 | 8.0 | 0.00 | 0.00 | 0.00 | 52 | 1017.9 |
| 20260505170042 | 25 | 275 | 8.0 | 8.0 | 0.00 | 0.00 | 0.00 | 54 | 1017.9 |
| 20260505165537 | 25 | 174 | 3.2 | 3.2 | 0.00 | 0.00 | 0.00 | 54 | 1018.3 |
| 20260505165032 | 24 | 193 | 0.0 | 0.0 | 0.00 | 0.00 | 0.00 | 55 | 1018.3 |
| 20260505164529 | 25 | 115 | 6.4 | 6.4 | 0.00 | 0.00 | 0.00 | 53 | 1018.3 |
| 20260505164027 | 25 | 74 | 3.2 | 3.2 | 0.00 | 0.00 | 0.00 | 53 | 1017.9 |
| 20260505163525 | 25 | 173 | 3.2 | 3.2 | 0.00 | 0.00 | 0.00 | 53 | 1017.9 |
| 20260505163022 | 25 | 246 | 3.2 | 3.2 | 0.00 | 0.00 | 0.00 | 54 | 1018.3 |
| 20260505162515 | 25 | 246 | 3.2 | 3.2 | 0.00 | 0.00 | 0.00 | 54 | 1018.3 |
| 20260505162012 | 25 | 148 | 1.6 | 1.6 | 0.00 | 0.00 | 0.00 | 52 | 1018.3 |
| 20260505161509 | 25 | 194 | 0.0 | 0.0 | 0.00 | 0.00 | 0.00 | 52 | 1018.3 |
| 20260505161006 | 24 | 110 | 1.6 | 1.6 | 0.00 | 0.00 | 0.00 | 55 | 1018.3 |
| 20260505160504 | 25 | 136 | 3.2 | 3.2 | 0.00 | 0.00 | 0.00 | 54 | 1018.3 |
| 20260505152940 | 24 | 114 | 4.8 | 4.8 | 0.00 | 0.00 | 0.00 | 56 | 1018.3 |
| 20260505152437 | 23 | 30 | 3.2 | 3.2 | 0.00 | 0.00 | 0.00 | 59 | 1018.3 |
| 20260505151937 | 24 | 84 | 0.0 | 0.0 | 0.00 | 0.00 | 0.00 | 58 | 1018.3 |
| 20260505151428 | 23 | 18 | 0.0 | 0.0 | 0.00 | 0.00 | 0.00 | 58 | 1018.3 |
| 20260505150926 | 23 | 270 | 0.0 | 0.0 | 0.00 | 0.00 | 0.00 | 58 | 1018.3 |
| 20260505150422 | 23 | 318 | 3.2 | 3.2 | 0.00 | 0.00 | 0.00 | 59 | 1018.3 |
| 20260505140352 | 22 | 264 | 0.0 | 0.0 | 0.00 | 0.00 | 0.00 | 66 | 1017.9 |